Regional Weather Roundup
Issued by NWS

Home | Current Version | Previous Version | Graphics & Text | Print | Product List | Glossary On
Versions: 1 2 3 4 5 6 7 8 9 10 11 12 13 14 15 16 17 18 19 20 21 22 23 24 25 26 27
000
ASUS45 KSLC 181710
RWRUT

UTAH REGIONAL WEATHER ROUNDUP
NATIONAL WEATHER SERVICE SALT LAKE CITY UT
1000 AM MST THU JAN 18 2018

UTZ001>011-023>025-181800-

NORTHERN UTAH

CITY           SKY/WX    TMP DP  RH WIND       PRES   REMARKS
BRIGHAM CITY   MOSUNNY   34  31  89 CALM      30.22S
DUGWAY         CLOUDY    38  30  73 SE6       30.20S WCI  34
HILL AFB       MOSUNNY   38  24  56 E14       30.19F WCI  30
LOGAN          SUNNY     34  28  79 N3        30.21R HAZE
OGDEN          MOSUNNY   42  27  55 SE6       30.19F
SALT LAKE CITY PTSUNNY   45  29  53 SE14      30.19F
TOOELE VALLEY  PTSUNNY   43  32  65 S9        30.18F
WENDOVER       CLOUDY    31  25  78 CALM      30.21S
HEBER CITY       N/A     30  25  80 CALM      30.25F
WEST JORDAN    MOSUNNY   42  29  60 S18       30.21R

$$

UTZ011>015-024>027-181800-

CENTRAL/NORTHEAST UTAH

CITY           SKY/WX    TMP DP  RH WIND       PRES   REMARKS
PROVO AIRPORT  MOSUNNY   37  29  72 CALM      30.25F
MOAB/CANYONLAN   N/A    N/A N/A N/A MISG      30.35R
DELTA          PTSUNNY   34  32  93 SW5       30.24S WCI  30
PRICE          PTSUNNY   31  25  78 CALM      30.33R
RICHFIELD      SUNNY     36  30  80 CALM      30.30F
ROOSEVELT      CLOUDY    27  18  69 CALM      30.38R
VERNAL         CLOUDY    27  15  61 CALM      30.36R

$$

UTZ013>016-019>022-027-181800-

SOUTHERN UTAH

CITY           SKY/WX    TMP DP  RH WIND       PRES   REMARKS
BRYCE CANYON   SUNNY     33  22  63 SW5       30.35R WCI  29
CEDAR CITY     MOSUNNY   40  30  67 CALM      30.26S
MILFORD        MOSUNNY   40  33  76 S8        30.23F WCI  34
ST GEORGE      SUNNY     42  34  73 CALM      30.31R
HANKSVILLE     PTSUNNY   28  14  54 CALM      30.40S
KANAB          SUNNY     45  25  45 NE3       30.36S
BLANDING         N/A     34  20  55 CALM      30.42R

$$

REGIONAL REPORTS     COLORADO/ARIZONA

CITY           SKY/WX    TMP DP  RH WIND       PRES   REMARKS
CRAIG, CO      MOSUNNY   20  13  74 W7        30.35R WCI  11
GRAND JUNCTION MOSUNNY   31  18  58 E7        30.37R WCI  24
RIFLE, CO      PTSUNNY   24  16  71 SW3       30.38S
MONTROSE, CO   PTSUNNY   30  14  51 CALM      30.39S
CORTEZ, CO     MOSUNNY   33  19  56 E5        30.35S WCI  29
COLORADO CITY    N/A     48  30  49 SE8       30.33S
PAGE, AZ       MOSUNNY   39  24  55 CALM      30.35R
GRAND CANYON   MOSUNNY   45  22  40 CALM      30.34R
KINGMAN, AZ    SUNNY     53  31  42 CALM      30.26R
FLAGSTAFF, AZ  SUNNY     40  22  48 CALM      30.34R

$$

REGIONAL REPORTS    NEVADA/IDAHO/WYOMING

CITY           SKY/WX    TMP DP  RH WIND       PRES   REMARKS
LAS VEGAS, NV  PTSUNNY   56  39  53 CALM      30.24R
ELY, NY        CLOUDY    38  28  67 CALM      30.22S
ELKO, NV       CLOUDY    31  29  92 SW3       30.12S
POCATELLO, ID  PTSUNNY   38  33  82 VRB3      30.08F
BURLEY, ID     CLOUDY    46  32  58 S24G35    30.03S
FORT BRIDGER,    N/A     45  22  41 CALM      30.25S
EVANSTON, WY   MOSUNNY   33  22  63 S8        30.22F WCI  26
ROCK SPRINGS,  CLOUDY    33  19  56 SW9       30.24S WCI  25

$$




USA.gov is the U.S. government's official web portal to all federal, state and local government web resources and services.